Simultaneous Nadir Overpasses (SNOs) Predictions

Prediction of SNOs over PacNW region [( 10.00, 139.50) to ( 22.70, 165.60)] between NOAA-19 and NPP Satellites:

Table of predicted SNOs over PacNW region for the next 30.0 days since TLE Epoch: 11/17/2012
Index Date (NOAA-19) Time (NOAA-19) NOAA-19 Lat,Lon Date (NPP) Time (NPP) NPP Lat,Lon Distance(km) Time Diff (sec)
1 11/27/2012 15:39:00 22.64, 152.54 11/27/2012 15:40:45 23.35, 149.35 335.87 105
2 11/28/2012 02:55:28 22.70, 155.98 11/28/2012 02:53:30 22.25, 153.80 229.77 118
3 12/09/2012 15:10:47 22.64, 159.64 12/09/2012 15:14:23 27.10, 156.65 580.54 216
4 12/10/2012 02:26:21 19.55, 163.87 12/10/2012 02:27:15 18.91, 160.95 314.59 54
5 12/10/2012 04:06:44 13.61, 139.78 12/10/2012 04:07:04 12.99, 136.98 311.25 20
6 12/10/2012 15:03:20 10.66, 159.46 12/10/2012 14:59:54 11.09, 157.50 219.34 206
